Regional Weather Roundup
Issued by NWS

Home | Current Version | Previous Version | Graphics & Text | Print | Product List | Glossary On
Versions: 1 2 3 4 5 6 7 8 9 10 11 12 13 14 15 16 17 18 19 20 21 22 23 24 25 26 27 28 29 30 31 32 33 34 35 36 37 38 39 40 41 42 43 44 45 46 47 48 49 50
000
ASUS43 KOAX 300902
RWRNE

WEATHER ROUNDUP FOR NEBRASKA
NATIONAL WEATHER SERVICE OMAHA NE
400 AM CDT SAT JUL 30 2016

NOTES: SATELLITE DATA IS BEING USED TO AUGMENT CLOUD COVER ABOVE
       12000 FEET.
       "FAIR" INDICATES FEW OR NO CLOUDS BELOW 12,000 FEET WITH NO
       SIGNIFICANT WEATHER AND/OR OBSTRUCTIONS TO VISIBILITY.

  * THESE STATIONS DO NOT REPORT WEATHER SUCH AS RAIN...SNOW OR FOG.

NEZ001>004-019>022-054>056-301000-
NEBRASKA PANHANDLE

CITY           SKY/WX    TMP DP  RH WIND       PRES   REMARKS
SCOTTSBLUFF    CLOUDY    61  58  90 NE8       30.03F
ALLIANCE       CLEAR     56  55  97 CALM      30.03F
CHADRON        CLEAR     59  56  89 CALM      30.01F
SIDNEY         PTCLDY    65  61  87 SW6       30.06F
$$

NEZ057>060-069>072-079>082-301000-
SOUTHWEST NEBRASKA

CITY           SKY/WX    TMP DP  RH WIND       PRES   REMARKS
NORTH PLATTE   CLEAR     64  62  93 E6        30.03F
IMPERIAL       CLOUDY    64  61  90 SE8       30.04F
LEXINGTON      CLEAR     66  62  88 S8        30.03F
MCCOOK         CLEAR     66  63  90 SE7       30.02F
OGALLALA       PTCLDY    66  63  89 S5        30.04S
$$

NEZ005>010-023>029-035>040-094-301000-
NORTH CENTRAL NEBRASKA

CITY           SKY/WX    TMP DP  RH WIND       PRES   REMARKS
VALENTINE      CLOUDY    66  61  84 E6        30.02F
AINSWORTH      TSTM      64  62  92 E12       30.03F
BROKEN BOW     CLOUDY    63  62  97 E5        30.03F
O`NEILL        PTCLDY    62  58  87 S5        30.04R
ORD            LGT RAIN  65  59  81 SE9       30.02S
THEDFORD       CLOUDY    65  63  92 SE5       30.03F
$$

NEZ041-046>049-061>064-073>077-083>087-301000-
SOUTH CENTRAL NEBRASKA

CITY           SKY/WX    TMP DP  RH WIND       PRES   REMARKS
GRAND ISLAND   CLEAR     63  58  83 SE7       30.03F
AURORA         CLEAR     61  60  97 SE6       30.03F
HASTINGS       CLEAR     66  59  78 SE9       30.04F
HEBRON         PTCLDY    61  59  95 CALM      30.03S
HOLDREGE       CLEAR     64  61  91 SE6       30.04S
KEARNEY *      CLOUDY    64  63  94 CALM      30.05R THUNDER
YORK           PTCLDY    64  61  88 SE6       30.04S
$$

NEZ011>018-030>034-042>045-301000-
NORTHEAST NEBRASKA

CITY           SKY/WX    TMP DP  RH WIND       PRES   REMARKS
NORFOLK        CLEAR     59  58  96 SE6       30.03F
ALBION         CLEAR     58  56  92 CALM      30.04S
BLAIR          PTCLDY    64  61  91 CALM      30.03S
FREMONT        MOCLDY    63  61  93 CALM      30.04S
TEKAMAH        CLEAR     60  57  89 CALM      30.03S
WAYNE          CLEAR     56  56  98 CALM      30.05R
$$

NEZ050>053-065>068-078-088>093-301000-
SOUTHEAST NEBRASKA

CITY           SKY/WX    TMP DP  RH WIND       PRES   REMARKS
LINCOLN        PTCLDY    63  61  93 N3        30.04S
OMAHA EPPLEY   PTCLDY    62  60  93 CALM      30.02S
BEATRICE       CLEAR     62  60  94 CALM      30.03S
FALLS CITY     PTCLDY    61  61 100 CALM      30.01S FOG
NEBRASKA CITY  PTCLDY    63  63 100 CALM      30.02F
PLATTSMOUTH    PTCLDY    62  62  97 CALM      30.03S
$$

NEZ044-045-051>053-067-301000-
OMAHA AREA

CITY           SKY/WX    TMP DP  RH WIND       PRES   REMARKS
OMAHA EPPLEY   PTCLDY    62  60  93 CALM      30.02S
BLAIR          PTCLDY    64  61  91 CALM      30.03S
FREMONT        MOCLDY    63  61  93 CALM      30.04S
MILLARD        PTCLDY    64  62  94 CALM      30.02F
OFFUTT AFB     PTCLDY    61  61 100 CALM      30.02S
PLATTSMOUTH    PTCLDY    62  62  97 CALM      30.03S
WAHOO          FAIR      61  59  94 CALM      30.04S
$$




USA.gov is the U.S. government's official web portal to all federal, state and local government web resources and services.